GW3580 Weather Reports


time (UTC)temp
F
wind
direction
speed
knots
gust
knots
rain 1hr
in
rain 24hr
in
rain mn
in
humidity
%
barometer
mb
20260905185435 78 134 0.9 0.9 0.00 0.00 0.00 33 1013.7
20260905184934 78 257 0.9 0.9 0.00 0.00 0.00 34 1013.8
20260905184429 77 309 2.6 3.5 0.00 0.00 0.00 35 1013.5
20260905183927 78 232 2.6 3.5 0.00 0.00 0.00 33 1013.7
20260905183422 77 213 0.9 0.9 0.00 0.00 0.00 34 1013.8
20260905182918 78 170 0.0 0.9 0.00 0.00 0.00 34 1013.5
20260905182416 77 98 0.9 0.9 0.00 0.00 0.00 34 1013.8
20260905181913 77 271 2.6 3.5 0.00 0.00 0.00 35 1013.9
20260905181412 76 272 2.6 3.5 0.00 0.00 0.00 36 1014.0
20260905180912 75 224 1.7 1.7 0.00 0.00 0.00 36 1013.9
20260905180406 75 257 2.6 3.5 0.00 0.00 0.00 36 1013.8
20260905175901 76 257 3.5 4.3 0.00 0.00 0.00 36 1014.1
20260905175400 75 304 0.9 0.9 0.00 0.00 0.00 37 1014.0
20260905174855 74 209 1.7 1.7 0.00 0.00 0.00 38 1013.7
20260905174352 74 293 0.0 0.0 0.00 0.00 0.00 38 1013.9
20260905173847 74 225 2.6 3.5 0.00 0.00 0.00 39 1013.9
20260905173343 74 47 0.9 0.9 0.00 0.00 0.00 38 1013.8
20260905172838 73 255 2.6 3.5 0.00 0.00 0.00 40 1013.7
20260905172336 72 298 0.9 1.7 0.00 0.00 0.00 40 1013.9
20260905171832 72 252 2.6 3.5 0.00 0.00 0.00 42 1013.8
20260905171329 73 241 0.9 3.5 0.00 0.00 0.00 41 1013.9
20260905170825 73 76 0.0 0.9 0.00 0.00 0.00 40 1013.9
20260905170320 73 256 2.6 3.5 0.00 0.00 0.00 41 1013.9
20260905165820 72 83 0.0 0.9 0.00 0.00 0.00 42 1013.8
20260905165315 71 79 0.9 0.9 0.00 0.00 0.00 45 1013.8
20260905164815 72 246 2.6 3.5 0.00 0.00 0.00 45 1013.9
20260905164310 71 67 0.9 0.9 0.00 0.00 0.00 45 1013.8
20260905163805 69 104 0.0 0.9 0.00 0.00 0.00 49 1014.0
20260905163301 69 0 1.7 1.7 0.00 0.00 0.00 49 1013.7
20260905162757 69 305 1.7 1.7 0.00 0.00 0.00 49 1013.8
20260905162257 69 221 1.7 3.5 0.00 0.00 0.00 49 1013.7
20260905161751 69 321 0.0 0.0 0.00 0.00 0.00 50 1013.8
20260905161250 68 300 0.9 0.9 0.00 0.00 0.00 50 1013.8
20260905160749 68 44 0.9 0.9 0.00 0.00 0.00 51 1013.5
20260905160243 67 50 0.0 0.0 0.00 0.00 0.00 52 1013.8
20260905155738 67 292 0.9 0.9 0.00 0.00 0.00 52 1013.8
20260905155237 67 55 0.0 0.9 0.00 0.00 0.00 51 1013.8
20260905154731 66 37 0.9 0.9 0.00 0.00 0.00 51 1013.5
20260905154227 67 63 0.9 0.9 0.00 0.00 0.00 52 1013.5
20260905153722 67 17 0.9 0.9 0.00 0.00 0.00 55 1013.3
20260905153219 66 323 0.0 0.0 0.00 0.00 0.00 56 1013.5
20260905152713 65 34 0.0 0.0 0.00 0.00 0.00 57 1013.4
20260905152207 64 248 0.0 0.9 0.00 0.00 0.00 58 1013.2
20260905151707 64 82 0.0 0.0 0.00 0.00 0.00 59 1013.3
20260905151203 63 111 0.0 0.0 0.00 0.00 0.00 62 1013.1
20260905150658 62 266 1.7 1.7 0.00 0.00 0.00 63 1013.1
20260905150156 62 240 1.7 1.7 0.00 0.00 0.00 65 1013.1
20260905145655 61 247 1.7 1.7 0.00 0.00 0.00 67 1012.9
20260905145154 61 249 2.6 3.5 0.00 0.00 0.00 66 1013.0
20260905144648 60 306 1.7 1.7 0.00 0.00 0.00 68 1012.9
20260905144143 60 240 0.9 0.9 0.00 0.00 0.00 69 1013.0
20260905143637 60 273 0.9 0.9 0.00 0.00 0.00 69 1012.8
20260905143132 60 259 0.9 1.7 0.00 0.00 0.00 69 1012.8
20260905142631 60 273 0.9 0.9 0.00 0.00 0.00 70 1012.9
20260905142131 59 248 1.7 1.7 0.00 0.00 0.00 70 1012.8
20260905141630 59 283 0.9 0.9 0.00 0.00 0.00 70 1012.9
20260905141127 59 264 1.7 1.7 0.00 0.00 0.00 70 1012.7
20260905140622 59 264 0.9 0.9 0.00 0.00 0.00 70 1012.7
20260905140121 59 280 1.7 1.7 0.00 0.00 0.00 69 1013.0
20260905135616 59 283 1.7 1.7 0.00 0.00 0.00 69 1012.6
20260905135112 59 301 1.7 1.7 0.00 0.00 0.00 69 1012.7
20260905134607 59 255 1.7 3.5 0.00 0.00 0.00 69 1012.6
20260905134105 59 276 1.7 1.7 0.00 0.00 0.00 68 1012.6
20260905133601 59 281 0.9 0.9 0.00 0.00 0.00 68 1012.7
20260905133101 59 295 1.7 1.7 0.00 0.00 0.00 68 1012.5
20260905132600 59 278 2.6 3.5 0.00 0.00 0.00 68 1012.3
20260905132055 59 271 0.9 0.9 0.00 0.00 0.00 67 1012.6
20260905131551 59 285 0.9 0.9 0.00 0.00 0.00 66 1012.5
20260905131046 60 276 2.6 3.5 0.00 0.00 0.00 65 1012.5
20260905130545 60 293 1.7 1.7 0.00 0.00 0.00 64 1012.5
20260905130040 60 291 0.9 0.9 0.00 0.00 0.00 63 1012.4
20260905125539 60 241 1.7 1.7 0.00 0.00 0.00 63 1012.3
20260905125035 60 285 1.7 1.7 0.00 0.00 0.00 63 1012.1
20260905124532 60 284 0.9 0.9 0.00 0.00 0.00 63 1012.2
20260905124028 60 278 1.7 1.7 0.00 0.00 0.00 63 1012.4
20260905123523 60 269 1.7 1.7 0.00 0.00 0.00 63 1012.4
20260905123019 60 256 1.7 1.7 0.00 0.00 0.00 63 1012.5
20260905122513 60 280 1.7 1.7 0.00 0.00 0.00 65 1012.5
20260905122009 60 303 0.0 0.0 0.00 0.00 0.00 66 1012.5
20260905121509 60 249 0.9 0.9 0.00 0.00 0.00 66 1012.4
20260905121003 60 66 0.0 0.0 0.00 0.00 0.00 66 1012.3
20260905120457 61 52 0.9 0.9 0.00 0.00 0.00 65 1012.2
20260905115952 61 246 0.9 0.9 0.00 0.00 0.00 65 1012.4
20260905115451 61 224 1.7 1.7 0.00 0.00 0.00 64 1012.4
20260905114946 61 315 0.9 0.9 0.00 0.00 0.00 64 1012.2
20260905114446 61 351 0.9 1.7 0.00 0.00 0.00 64 1012.3
20260905113944 61 263 1.7 1.7 0.00 0.00 0.00 65 1012.3
20260905113440 61 309 0.0 0.9 0.00 0.00 0.00 65 1012.2
20260905112935 61 240 1.7 1.7 0.00 0.00 0.00 65 1012.3
20260905112431 61 231 1.7 1.7 0.00 0.00 0.00 65 1012.4
20260905111926 61 157 0.0 0.9 0.00 0.00 0.00 65 1012.5
20260905111426 61 98 0.0 0.0 0.00 0.00 0.00 65 1012.2
20260905110920 61 288 0.0 0.9 0.00 0.00 0.00 66 1012.3
20260905110414 61 306 0.0 0.0 0.00 0.00 0.00 66 1012.3
20260905105908 61 44 0.0 0.0 0.00 0.00 0.00 66 1012.4
20260905105403 62 261 0.9 0.9 0.00 0.00 0.00 65 1012.3
20260905104903 62 278 1.7 1.7 0.00 0.00 0.00 65 1012.4
20260905104359 62 272 0.0 0.9 0.00 0.00 0.00 66 1012.4
20260905103858 62 348 0.0 0.9 0.00 0.00 0.00 65 1012.3
20260905103354 62 142 0.0 0.9 0.00 0.00 0.00 64 1012.1
20260905102850 62 287 0.9 0.9 0.00 0.00 0.00 64 1012.4
20260905102347 62 263 0.0 0.9 0.00 0.00 0.00 64 1012.4
20260905101846 63 240 1.7 1.7 0.00 0.00 0.00 63 1012.4
20260905101345 63 236 1.7 1.7 0.00 0.00 0.00 62 1012.6
20260905100839 63 249 0.9 0.9 0.00 0.00 0.00 62 1012.6
20260905100336 63 298 0.9 0.9 0.00 0.00 0.00 61 1012.6
20260905095834 63 258 1.7 1.7 0.00 0.00 0.00 61 1012.7
20260905095329 63 271 2.6 3.5 0.00 0.00 0.00 61 1012.5
20260905094824 63 267 2.6 3.5 0.00 0.00 0.00 60 1012.5
20260905094319 63 259 2.6 3.5 0.00 0.00 0.00 61 1012.4
20260905093818 63 269 1.7 1.7 0.00 0.00 0.00 60 1012.8
20260905093314 63 225 2.6 4.3 0.00 0.00 0.00 60 1012.6
20260905092810 63 291 1.7 1.7 0.00 0.00 0.00 60 1012.5
20260905092310 64 266 2.6 3.5 0.00 0.00 0.00 60 1012.6
20260905091805 64 238 1.7 1.7 0.00 0.00 0.00 59 1012.5
20260905091304 64 265 1.7 1.7 0.00 0.00 0.00 59 1012.5
20260905090803 64 256 1.7 1.7 0.00 0.00 0.00 58 1012.9
20260905090259 64 254 0.0 0.9 0.00 0.00 0.00 58 1012.6
20260905085758 64 247 1.7 1.7 0.00 0.00 0.00 58 1012.7
20260905085253 64 238 1.7 1.7 0.00 0.00 0.00 57 1012.8
20260905084748 65 244 0.9 0.9 0.00 0.00 0.00 56 1012.6
20260905084248 65 273 0.0 0.9 0.00 0.00 0.00 55 1012.9
20260905083743 65 277 1.7 1.7 0.00 0.00 0.00 54 1012.8
20260905083238 65 256 1.7 3.5 0.00 0.00 0.00 54 1013.0
20260905082734 65 288 4.3 5.2 0.00 0.00 0.00 53 1012.9
20260905082230 65 279 1.7 1.7 0.00 0.00 0.00 53 1012.9
20260905081729 66 273 0.9 0.9 0.00 0.00 0.00 52 1012.8
20260905081225 66 252 3.5 4.3 0.00 0.00 0.00 52 1012.8
20260905080719 66 269 1.7 1.7 0.00 0.00 0.00 51 1012.8
20260905080219 66 271 2.6 3.5 0.00 0.00 0.00 52 1012.7
20260905075718 66 228 3.5 3.5 0.00 0.00 0.00 52 1012.9
20260905075217 66 251 1.7 1.7 0.00 0.00 0.00 52 1012.8
20260905074716 67 286 1.7 1.7 0.00 0.00 0.00 51 1012.7
20260905074212 67 244 1.7 1.7 0.00 0.00 0.00 51 1012.8
20260905073708 67 247 1.7 3.5 0.00 0.00 0.00 50 1012.6
20260905073203 67 245 1.7 1.7 0.00 0.00 0.00 49 1012.6
20260905072702 67 293 3.5 4.3 0.00 0.00 0.00 49 1012.5
20260905072158 67 250 4.3 5.2 0.00 0.00 0.00 48 1012.7
20260905071654 68 255 0.9 0.9 0.00 0.00 0.00 48 1012.7
20260905071150 68 273 2.6 3.5 0.00 0.00 0.00 48 1012.5
20260905070644 68 279 2.6 3.5 0.00 0.00 0.00 47 1012.3
20260905070141 68 294 3.5 5.2 0.00 0.00 0.00 46 1012.4
20260905065639 68 248 2.6 4.3 0.00 0.00 0.00 46 1012.5
20260905065133 68 247 2.6 3.5 0.00 0.00 0.00 46 1012.2
20260905064629 68 271 0.9 1.7 0.00 0.00 0.00 46 1012.3
20260905064124 68 203 3.5 4.3 0.00 0.00 0.00 46 1012.3
20260905063623 69 232 0.9 1.7 0.00 0.00 0.00 47 1012.2
20260905063120 69 274 1.7 1.7 0.00 0.00 0.00 48 1012.5
20260905062615 69 249 1.7 1.7 0.00 0.00 0.00 47 1012.3
20260905062114 69 264 0.9 0.9 0.00 0.00 0.00 47 1012.0
20260905061609 69 242 2.6 4.3 0.00 0.00 0.00 47 1012.1
20260905061103 69 256 1.7 1.7 0.00 0.00 0.00 49 1012.1
20260905060559 69 224 1.7 1.7 0.00 0.00 0.00 50 1012.1
20260905060054 69 265 2.6 3.5 0.00 0.00 0.00 49 1011.9
20260905055553 69 192 0.9 0.9 0.00 0.00 0.00 50 1012.0
20260905055049 69 277 0.9 0.9 0.00 0.00 0.00 50 1012.1
20260905054543 69 279 0.9 0.9 0.00 0.00 0.00 49 1012.0
20260905054039 69 247 1.7 1.7 0.00 0.00 0.00 49 1012.0
20260905053533 69 231 1.7 1.7 0.00 0.00 0.00 49 1012.2
20260905053029 69 242 0.9 1.7 0.00 0.00 0.00 50 1011.9
20260905052527 69 266 0.9 0.9 0.00 0.00 0.00 50 1012.2
20260905052022 69 244 1.7 1.7 0.00 0.00 0.00 52 1012.1
20260905051518 69 227 0.0 0.9 0.00 0.00 0.00 52 1011.9
20260905051015 69 263 0.9 0.9 0.00 0.00 0.00 52 1011.9
20260905050510 69 249 0.9 0.9 0.00 0.00 0.00 53 1011.9
20260905050007 69 260 0.0 0.9 0.00 0.00 0.00 53 1012.3
20260905045501 69 42 0.0 0.9 0.00 0.00 0.00 53 1011.9
20260905044956 69 238 0.9 0.9 0.00 0.00 0.00 52 1012.0
20260905044451 70 152 0.0 0.0 0.00 0.00 0.00 52 1011.9
20260905043951 70 160 0.0 0.9 0.00 0.00 0.00 50 1011.8
20260905043450 70 307 0.0 0.0 0.00 0.00 0.00 48 1011.7
20260905042945 71 278 2.6 3.5 0.00 0.00 0.00 48 1011.8
20260905042445 70 246 1.7 1.7 0.00 0.00 0.00 52 1011.8
20260905041940 70 257 0.9 0.9 0.00 0.00 0.00 51 1011.8
20260905041436 70 35 0.0 0.0 0.00 0.00 0.00 50 1011.6
20260905040931 70 40 0.9 0.9 0.00 0.00 0.00 50 1011.6
20260905040430 71 42 0.0 0.0 0.00 0.00 0.00 51 1011.5
20260905035930 71 35 0.0 0.0 0.00 0.00 0.00 50 1011.4
20260905035425 71 35 0.0 0.0 0.00 0.00 0.00 50 1011.3
20260905034922 71 22 0.0 0.0 0.00 0.00 0.00 48 1011.5
20260905034416 71 273 0.0 0.0 0.00 0.00 0.00 49 1011.2
20260905033916 72 14 0.0 0.0 0.00 0.00 0.00 49 1011.1
20260905033411 72 268 0.0 0.0 0.00 0.00 0.00 50 1011.3
20260905032910 72 14 0.0 0.9 0.00 0.00 0.00 51 1011.1
20260905032406 73 17 0.0 0.0 0.00 0.00 0.00 50 1011.1
20260905031901 73 17 0.0 0.0 0.00 0.00 0.00 49 1011.0
20260905031357 73 280 0.0 0.0 0.00 0.00 0.00 48 1010.9
20260905030852 73 269 1.7 1.7 0.00 0.00 0.00 49 1011.0
20260905030348 74 155 0.9 0.9 0.00 0.00 0.00 49 1010.9
20260905025846 74 225 0.0 0.0 0.00 0.00 0.00 49 1010.9
20260905025342 74 269 0.0 0.0 0.00 0.00 0.00 49 1011.0
20260905024839 75 269 0.9 0.9 0.00 0.00 0.00 48 1011.0
20260905024333 75 268 0.0 0.0 0.00 0.00 0.00 47 1010.8
20260905023829 75 266 0.0 0.9 0.00 0.00 0.00 46 1010.6
20260905023324 76 256 0.0 0.0 0.00 0.00 0.00 45 1010.8
20260905022822 76 264 0.0 0.0 0.00 0.00 0.00 44 1010.9
20260905022318 77 237 0.9 0.9 0.00 0.00 0.00 43 1010.6
20260905021813 77 242 0.0 0.0 0.00 0.00 0.00 42 1010.6
20260905021308 78 261 0.9 0.9 0.00 0.00 0.00 41 1011.0
20260905020802 78 237 0.9 0.9 0.00 0.00 0.00 40 1010.5
20260905020257 79 269 2.6 3.5 0.00 0.00 0.00 39 1010.9
20260905015756 80 207 0.0 0.9 0.00 0.00 0.00 38 1010.6
20260905015250 80 85 0.0 0.0 0.00 0.00 0.00 37 1010.8
20260905014749 80 221 0.0 0.0 0.00 0.00 0.00 37 1010.9
20260905014245 81 235 0.9 1.7 0.00 0.00 0.00 36 1010.8
20260905013741 80 107 0.0 0.0 0.00 0.00 0.00 35 1010.6
20260905013236 81 101 0.9 0.9 0.00 0.00 0.00 35 1010.6
20260905012731 82 36 0.9 0.9 0.00 0.00 0.00 34 1010.8
20260905012227 81 248 1.7 1.7 0.00 0.00 0.00 34 1010.8
20260905011724 82 308 3.5 4.3 0.00 0.00 0.00 33 1010.6
20260905011214 82 238 2.6 4.3 0.00 0.00 0.00 34 1010.6
20260905010714 82 61 1.7 1.7 0.00 0.00 0.00 33 1010.6
20260905010209 82 234 1.7 1.7 0.00 0.00 0.00 33 1010.6
20260905005705 82 267 1.7 1.7 0.00 0.00 0.00 34 1010.6
20260905005201 82 284 1.7 1.7 0.00 0.00 0.00 34 1010.6
20260905004655 82 257 3.5 4.3 0.00 0.00 0.00 35 1010.8
20260905004150 82 222 3.5 5.2 0.00 0.00 0.00 33 1010.5
20260905003646 83 257 4.3 5.2 0.00 0.00 0.00 34 1010.9
20260905003142 82 262 0.9 1.7 0.00 0.00 0.00 35 1010.8
20260905002637 82 257 0.9 1.7 0.00 0.00 0.00 35 1010.5
20260905002131 83 273 5.2 6.1 0.00 0.00 0.00 34 1010.8
20260905001627 83 249 1.7 4.3 0.00 0.00 0.00 34 1010.5
20260905001126 83 224 2.6 3.5 0.00 0.00 0.00 34 1010.6
20260905000621 83 288 3.5 4.3 0.00 0.00 0.00 34 1010.6
20260905000117 84 243 0.9 0.9 0.00 0.00 0.00 35 1010.5
20260904235617 83 274 3.5 4.3 0.00 0.00 0.00 34 1010.5
20260904235116 83 284 3.5 4.3 0.00 0.00 0.00 34 1010.6
20260904234612 82 254 3.5 4.3 0.00 0.00 0.00 33 1010.9
20260904234107 83 245 2.6 3.5 0.00 0.00 0.00 34 1010.9
20260904233603 83 2 1.7 1.7 0.00 0.00 0.00 34 1010.8
20260904233058 82 273 6.1 7.0 0.00 0.00 0.00 35 1011.0
20260904232555 84 232 3.5 5.2 0.00 0.00 0.00 35 1011.0
20260904232051 84 350 0.9 0.9 0.00 0.00 0.00 36 1011.0
20260904231546 84 244 1.7 1.7 0.00 0.00 0.00 35 1011.0
20260904231041 83 240 1.7 1.7 0.00 0.00 0.00 35 1011.1
20260904230540 83 314 0.9 0.9 0.00 0.00 0.00 35 1011.1
20260904230036 83 54 1.7 1.7 0.00 0.00 0.00 35 1011.2
20260904225534 82 67 2.6 3.5 0.00 0.00 0.00 36 1011.1
20260904225033 84 57 0.9 0.9 0.00 0.00 0.00 34 1011.4
20260904224529 82 229 1.7 1.7 0.00 0.00 0.00 35 1011.2
20260904224028 83 253 3.5 4.3 0.00 0.00 0.00 36 1011.4
20260904223527 82 271 0.9 0.9 0.00 0.00 0.00 36 1011.4
20260904223024 83 225 1.7 3.5 0.00 0.00 0.00 36 1011.6
20260904222519 84 271 3.5 4.3 0.00 0.00 0.00 35 1011.5
20260904222014 83 313 0.9 0.9 0.00 0.00 0.00 35 1011.6
20260904221508 84 58 1.7 1.7 0.00 0.00 0.00 36 1011.7
20260904221003 83 352 1.7 1.7 0.00 0.00 0.00 37 1011.9
20260904220503 82 213 2.6 3.5 0.00 0.00 0.00 36 1011.8
20260904215958 83 304 2.6 3.5 0.00 0.00 0.00 37 1011.8
20260904215453 83 277 0.9 1.7 0.00 0.00 0.00 37 1012.0
20260904214948 83 28 0.9 0.9 0.00 0.00 0.00 37 1012.0
20260904214444 82 309 0.9 0.9 0.00 0.00 0.00 39 1012.0
20260904213939 82 14 1.7 1.7 0.00 0.00 0.00 39 1012.0
20260904213432 81 265 1.7 1.7 0.00 0.00 0.00 40 1012.0
20260904212929 82 219 0.9 0.9 0.00 0.00 0.00 40 1012.1
20260904212428 82 211 0.0 0.9 0.00 0.00 0.00 40 1012.1
20260904211924 82 62 2.6 3.5 0.00 0.00 0.00 40 1012.2
20260904211418 81 32 1.7 3.5 0.00 0.00 0.00 40 1012.1
20260904210914 80 262 0.0 0.0 0.00 0.00 0.00 40 1012.2
20260904210413 79 254 0.9 1.7 0.00 0.00 0.00 41 1012.4
20260904205909 80 244 3.5 4.3 0.00 0.00 0.00 41 1012.2
20260904205404 81 261 3.5 4.3 0.00 0.00 0.00 43 1012.4
20260904204901 80 63 0.9 0.9 0.00 0.00 0.00 42 1012.4
20260904204357 81 20 2.6 3.5 0.00 0.00 0.00 43 1012.6
20260904203853 80 323 2.6 3.5 0.00 0.00 0.00 43 1012.4
20260904203349 79 63 0.9 1.7 0.00 0.00 0.00 41 1012.8
20260904202844 79 245 3.5 4.3 0.00 0.00 0.00 43 1012.6
20260904202341 79 287 2.6 4.3 0.00 0.00 0.00 44 1012.6
20260904201836 78 338 1.7 1.7 0.00 0.00 0.00 44 1012.5
20260904201336 79 245 3.5 4.3 0.00 0.00 0.00 45 1012.6
20260904200831 79 352 0.0 0.0 0.00 0.00 0.00 44 1012.8
20260904200330 78 13 1.7 1.7 0.00 0.00 0.00 46 1012.5
20260904195825 77 257 0.9 0.9 0.00 0.00 0.00 47 1012.6
20260904195323 78 256 3.5 5.2 0.00 0.00 0.00 47 1012.7
20260904194818 78 253 0.9 1.7 0.00 0.00 0.00 46 1012.8
20260904194317 78 311 1.7 1.7 0.00 0.00 0.00 48 1012.6
20260904193813 78 274 4.3 5.2 0.00 0.00 0.00 48 1012.9
20260904193308 78 89 0.0 0.0 0.00 0.00 0.00 46 1012.9
20260904192803 77 353 0.0 0.0 0.00 0.00 0.00 49 1013.1
20260904192258 77 289 1.7 1.7 0.00 0.00 0.00 49 1013.1
20260904191755 77 267 3.5 4.3 0.00 0.00 0.00 49 1013.1
20260904191251 78 264 2.6 3.5 0.00 0.00 0.00 49 1013.1
20260904190748 77 11 0.0 0.9 0.00 0.00 0.00 49 1013.2
20260904190243 77 289 2.6 3.5 0.00 0.00 0.00 51 1013.1